FENGYUN 1C DEB, 36231

Orbit data source: Space-Track

FENGYUN 1C DEB, 36231 is space debris in SSO originally from a launch on Mon, 10 May 1999 UTC launched from the Taiyaun Space Center, China (TSC). Fengyun 1C debris stems from the Chinese weather satellite Fengyun-1C, which was intentionally destroyed by a Chinese anti-satellite missile in 2007. This event dramatically increased the amount of space debris, with thousands of trackable fragments posing hazards to satellites and human spaceflight. The Fengyun 1C debris cloud has become a focal point in discussions about space sustainability and the need for international regulations to prevent the creation of new debris.

Loading next visibility...
Identifier
36231, 1999-025DVG
Orbit
SSO
Country
Flag of CNCN / PRC
Related business
Manufacturer
Unknown
Mission
Spacecraft
Bus & Motor
Unknown
Mass
Unknown
Launch date (UTC)
1999-05-10 (27 years ago)
Launch vehicle
Unknown
Launch site
Taiyaun Space Center, China (TSC)
Object type
Payload
Rocket body
Debris
Shape & HBR
Unknown shape, 0.1 m
Radar Cross Section
Small (<0.1 m²)

Expand to show TLE details & history
Last TLE update: 19 hours ago

TLE from 19 hours ago
0 FENGYUN 1C DEB
1 36231U 99025DVG 26149.75565205  .00000132  00000-0  93582-4 0  9994
2 36231  98.7096 124.7268 0060146 213.7909 145.9423 14.12093337879144
Epoch: 2026-05-29T18:08Z
TLE epoch observation values (Epoch: 2026-05-29T18:08:08.337Z)
Latitude
-0.00008°
Longitude
-34.5894°
Altitude
891.238 km
Speed
7.388 km/s
True Right ascension
08h 18m 54s
True Declination
0° 00' 00"
Sunlit
Object was in daylight at epoch
Visualization orbit readout
Latitude
Unknown
Longitude
Unknown
Altitude
Unknown
Speed
Unknown
Apparent Right ascension
Unknown
Apparent Declination
Unknown
Sunlit
N/A
Visualization observer readout
Local Sidereal Time
23:01:52
Azimuth
Unknown
Elevation
Unknown
Doppler factor
Unknown
Orbital elements
Apogee altitude
892.857 km
Perigee altitude
805.916 km
Semi-major axis
7,227.523 km
Eccentricity
0.00601
Inclination
98.7096°
RAAN
124.7268°
Arg. of periapsis
213.7909°
True anomaly
146.32589°
Mean anomaly
145.9423°
Eccentric anomaly
146.13433°
Mean motion
3.53231 °/min
Orbital period
101.92 mins
BSTAR
0.000093582
Loading maneuver chart data...
Computing Atmospheric mass density...
Loading historical data...
Loading historical data...
Loading historical data...
Loading historical data...
Loading historical data...
Loading historical data...
Loading historical data...

Documentation

Showing up to 5 results
|